Location: *
(47.2969°N, 10.2930°E)
Time: 14:44:56
(UTC+00:00)

Cosmos 1190 Rocket - Pass Details

Date: 09 April 2020
Orbit: 757 x 779 km, 74.1° (Epoch: 02 June)

Event Time Altitude Azimuth Distance (km) Brightness Sun altitude
Rises 18:37:19 0° 184° (S) 3,247 7.1 -6.9°
Reaches altitude 10° 18:39:46 10° 178° (S) 2,322 6.3 -7.3°
Maximum altitude 18:44:49 49° 105° (ESE) 1,000 4.2 -8.1°
Drops below altitude 10° 18:49:53 10° 32° (NNE) 2,327 6.4 -8.9°
Sets 18:52:20 0° 27° (NNE) 3,255 7.2 -9.3°
